STARLINK-33938

Satellite information

Favourite Embed

Satellite Type and Status

PAYLOADIN ORBIT

Key statistics

Satellite STARLINK-33938 at a glance.

Uptime

225

Days in orbit

Revolutions

≈ 15.3

Per day

Orbit

LEO

Low Earth Orbit

Inclination

43.0

Latest

Satellite identification and parameters

Extended collection of information and parameters for STARLINK-33938.

Object identification

Identified? True

Debris? False

Object name: STARLINK-33938

International designator: 2025-091D

Object number (NORAD): 63778

Object ID (CCSDS): 63778

Country: UNITED STATES OF AMERICA (US)

Current information (Y/N): Y

RCS size: LARGE

Orbital parameters

Period: 94.266 minutes

Inclination: 43.0008 deg

SMA: 6861.14 km

Apoapsis: 484.135 km

Periapsis: 481.874 km

RAAN: 186.2299 deg

Eccentricy: 0.00016481

Argument of periapsis: 283.1404 deg

Mean anomaly: 76.9264 deg

Mean motion: 15.27595489 rev/day

Mean motion (dot): 0.00034702 rev/day2

B* drag term: 0.0012640306 1/REarth

Two-line elements (TLE)

Creation date: Dec. 12, 2025, 10:14 a.m.

Reference frame: TEME

Reference center: EARTH

Epoch: Dec. 12, 2025, 6:47 a.m. UTC

TLE line 0: 0 STARLINK-33938

TLE line 1: 1 63778U 25091D 25346.28266683 .00034702 00000-0 12640-2 0 9990

TLE line 2: 2 63778 43.0008 186.2299 0001648 283.1404 76.9264 15.27595489 35621

Live tracking on map

Real-time ground track for satellite STARLINK-33938.

In-orbit conjunctions

There are no conjunctions computed for STARLINK-33938, at the moment. Check back to stay up to date, as we update our databases every day.

Go to all conjunctions

Associated space launch

A batch of 28 satellites for the Starlink mega-constellation - SpaceX's project for space-based Internet communication system.

STARLINK-33938 was lifted into orbit during the mission ‘Falcon 9 Block 5 | Starlink Group 6-75’, on board a Falcon 9 space rocket.

The launch took place on May 2, 2025, 1:51 a.m. from Space Launch Complex 40.

For more information about the launch, click the button.

Launch to space Falcon 9 Block 5 | Starlink Group 6-75
Falcon 9 Block 5 | Starlink Group 6-75

Agency: SpaceX

Status: Launch Successful

Launch date: May 2, 2025, 1:51 a.m. UTC

Rocket: Falcon 9

Launch pad: Space Launch Complex 40

Location: Cape Canaveral SFS, FL, USA

...

Latest news about this satellite

News about space launch
Live coverage: SpaceX to launch 28 Starlink satellites on Falcon 9 rocket from Cape Canaveral

SpaceX will be aiming to complete its 440th successful booster landing with this mission, using a Falcon 9 first stage booster flying for an 18th time. Liftoff from pad 40 at Cape Canaveral Space Force Station is targeting 9:51 p.m. EDT (0151 UTC).

News about space launch
Launch Roundup: Starlink missions fill launch manifest, Biomass and Alpha launch

This week’s schedule includes up to six Starlink launches from Florida and California. Arianespace launched… The post Launch Roundup: Starlink missions fill launch manifest, Biomass and Alpha launch appeared first on NASASpaceFlight.com.


Newsletter sign-up

Weekly statistics, charts and insights to help you stay on top of the space industry.